This demonstration page uses our WeatherBlox Daily Observations layout. Learn more.

Left ArrowRight Arrow

44.8408, -93.29828

Hourly Observations for December 29, 2017

Temp ( °F °C ) Dew Point ( °F °C ) Humidity (%) Winds ( mph kmh ) Pressure ( in mb ) Visibility ( mi km ) Precip ( " mm )
12:46 am 00:46 Mostly Cloudy 3 -16.1 -2 -18.9 79 79 WNW 8 13 30.48 1032 10 16 0.00 0.00
12:53 am 00:53 Mostly Cloudy 3 -16.1 -2 -18.9 79 79 WNW 12 19 30.41 1030 10 16 0.00 0.00
1:19 am 01:19 Mostly Cloudy 2 -16.7 -2 -18.9 83 83 WNW 9 15 30.48 1032 10 16 0.00 0.00
1:53 am 01:53 Cloudy 1 -17.2 -3 -19.4 83 83 WNW 10 17 30.41 1030 10 16 0.00 0.00
2:53 am 02:53 Cloudy 0 -17.8 -4 -20 83 83 WNW 6 9 30.43 1030 10 16 0.00 0.00
3:53 am 03:53 Cloudy -1 -18.3 -5 -20.6 82 82 W 8 13 30.43 1031 10 16 0.00 0.00
4:53 am 04:53 Cloudy -1 -18.3 -6 -21.1 79 79 NW 7 11 30.40 1029 10 16 0.00 0.00
5:53 am 05:53 Cloudy -2 -18.9 -7 -21.7 79 79 WNW 6 9 30.40 1029 10 16 0.00 0.00
6:53 am 06:53 Cloudy -1 -18.3 -7 -21.7 75 75 WNW 8 13 30.40 1029 10 16 0.00 0.00
7:53 am 07:53 Cloudy -2 -18.9 -7 -21.7 79 79 NW 8 13 30.42 1030 10 16 0.00 0.00
8:53 am 08:53 Cloudy -1 -18.3 -7 -21.7 75 75 NW 8 13 30.42 1030 10 16 0.00 0.00
9:53 am 09:53 Cloudy 0 -17.8 -7 -21.7 72 72 NW 7 11 30.42 1030 10 16 0.00 0.00
10:53 am 10:53 Cloudy with Light Snow 0 -17.8 -5 -20.6 79 79 WNW 5 7 30.43 1031 5 8 0.00 0.03
11:20 am 11:20 Cloudy with Light Snow 0 -17.8 -5 -20.6 79 79 WNW 5 7 30.48 1032 2 3 0.01 0.25
11:27 am 11:27 Cloudy with Light Snow 1 -17.2 -5 -20.6 75 75 WNW 6 9 30.48 1032 2 2 0.01 0.25
11:36 am 11:36 Cloudy with Light Snow 0 -17.8 -5 -20.6 79 79 WNW 8 13 30.48 1032 1 2 0.01 0.25
11:53 am 11:53 Cloudy with Light Snow 1 -17.2 -4 -20 79 79 NW 7 11 30.42 1030 2 3 0.01 0.25
12:11 pm 12:11 Cloudy with Light Snow 1 -17.2 -4 -20 79 79 NW 7 11 30.48 1032 1 2 0.00 0.03
12:42 pm 12:42 Cloudy with Light Snow 1 -17.2 -4 -20 79 79 WNW 7 11 30.45 1031 2 3 0.01 0.25
12:53 pm 12:53 Cloudy with Light Snow 1 -17.2 -4 -20 79 79 WNW 9 15 30.40 1030 2 3 0.02 0.51
1:01 pm 13:01 Cloudy with Light Snow 1 -17.2 -4 -20 79 79 WNW 8 13 30.45 1031 2 2 0.00 0.03
1:27 pm 13:27 Cloudy with Light Snow 2 -16.7 -3 -19.4 80 80 WNW 6 9 30.45 1031 2 3 0.00 0.03
1:53 pm 13:53 Cloudy with Light Snow 2 -16.7 -3 -19.4 80 80 NW 9 15 30.41 1030 3 5 0.00 0.03
2:04 pm 14:04 Cloudy with Light Snow 2 -16.7 -3 -19.4 80 80 NW 12 19 30.45 1031 2 3 0.01 0.25
2:14 pm 14:14 Cloudy with Light Snow 2 -16.7 -3 -19.4 80 80 NW 9 15 30.45 1031 3 5 0.01 0.25
2:27 pm 14:27 Cloudy with Light Snow 2 -16.7 -3 -19.4 80 80 NNW 10 17 30.45 1031 2 3 0.01 0.25
2:53 pm 14:53 Cloudy with Light Snow 2 -16.7 -3 -19.4 80 80 NNW 12 19 30.41 1030 7 11 0.02 0.51
3:10 pm 15:10 Cloudy with Light Snow 2 -16.7 -4 -20 76 76 NW 10 17 30.45 1031 8 13 0.00 0.03
3:53 pm 15:53 Cloudy with Haze 2 -16.7 -4 -20 76 76 WNW 10 17 30.41 1030 6 10 0.00 0.03
4:13 pm 16:13 Cloudy with Light Snow 2 -16.7 -4 -20 76 76 WNW 10 17 30.45 1031 4 6 0.00 0.03
4:53 pm 16:53 Cloudy with Light Snow 2 -16.7 -3 -19.4 80 80 NW 10 17 30.42 1030 4 6 0.00 0.03
5:53 pm 17:53 Cloudy 2 -16.7 -4 -20 76 76 NW 9 15 30.43 1030 10 16 0.00 0.03
6:53 pm 18:53 Cloudy 2 -16.7 -4 -20 76 76 NW 12 19 30.43 1031 10 16 0.00 0.00
7:53 pm 19:53 Partly Cloudy 1 -17.2 -5 -20.6 75 75 NW 12 19 30.45 1031 10 16 0.00 0.00
8:53 pm 20:53 Clear 0 -17.8 -7 -21.7 72 72 NW 13 20 30.45 1031 10 16 0.00 0.00
9:53 pm 21:53 Clear -1 -18.3 -8 -22.2 72 72 NNW 15 24 30.45 1031 10 16 0.00 0.00
10:53 pm 22:53 Clear -3 -19.4 -9 -22.8 75 75 NW 14 22 30.47 1032 10 16 0.00 0.00
11:53 pm 23:53 Clear -5 -20.6 -11 -23.9 75 75 NW 14 22 30.49 1032 10 16 0.00 0.00

Powered by AerisWeather